Find Starlink 30845

NORAD ID: 58207 Int'l Des: 2023-170 Owner: SPXS Country: US Constellation: starlink operational
LEOCIRCULAR

Live-Position

3D-Globus wird geladen...

Über Starlink 30845

Beschreibung wird geladen...

Nächste Überflüge

Passes for default location (London). Set your location on the main map for personalized predictions.

Höhenverlauf

Loading altitude history...

Zweizeiliger Elementsatz

1 58207U 23170B 26123.64082589 .00061153 00000-0 43857-2 0 9996
2 58207 42.9999 256.6489 0002227 279.8011 80.2580 15.03527147138557
Epoch: 3. Mai 2026 • Age: 45 hours

Aktueller Status

Höhe 559.3 km
Geschwindigkeit 7.59 km/s
Subsatellitenpunkt 40.04°N, 48.24°W
Startdatum 4. Nov. 2023
Alter 2.4 years
Typ internet

Technische Details

Klassifizierung Payload
Masse 730.00 kg
Trockenmasse 700.00 kg
Gesamtmasse 730.00 kg
Länge 0.30 m
Durchmesser 4.10 m
Spannweite 29.00 m
Form Box + pan
Hersteller SPXS
Bus-Typ Starlink V2M
Phasenstatus In Orbit
Besitzer/Staat SPXS/US

Most Searched